Tracking 27188 objects as of 1-Apr-2023
HD Live streaming from Space Station
objects crossing your sky now

STARLINK-4216

Track STARLINK-4216 now!
10-day predictions
STARLINK-4216 is classified as:


NORAD ID: 53022
Int'l Code: 2022-076AN
Perigee: 545.9 km
Apogee: 547.9 km
Inclination: 53.2 °
Period: 95.4 minutes
Semi major axis: 6917 km
RCS: Unknown
Launch date: July 7, 2022
Source: United States (US)
Launch site: AIR FORCE EASTERN TEST RANGE (AFETR)
Your satellite tracking list
Your tracking list is empty




NASA's NSSDC Master Catalog

Two Line Element Set (TLE):
1 53022U 22076AN  23090.53025864  .00002714  00000-0  18848-3 0  9992
2 53022  53.2138 226.2095 0001440 110.4178 249.6968 15.08848276 41292
Source of the keplerian elements: AFSPC